Crane Lake, MN

12:14 AM CDT on October 24, 2019 (GMT -0500)
Crane Lake

Weather History for KCDD - June, 2019

Change the Weather History Date:

Sunday, June 2, 2019

  Actual Average Record
Temperature  
Mean Temperature 44 °F -  
Max Temperature 60 °F 65 °F 82 °F (2017)
Min Temperature 28 °F 42 °F 28 °F (2011)
Degree Days  
Heating Degree Days 21    
Moisture  
Dew Point 31 °F    
Average Humidity 66    
Maximum Humidity 100    
Minimum Humidity 31    
Precipitation  
Precipitation 0.00 in - - ()
Sea Level Pressure  
Sea Level Pressure 30.04 in    
Wind  
Wind Speed 1 mph (NNE)    
Max Wind Speed 8 mph    
Max Gust Speed -    
Visibility 10 miles    
Events      
Averages and records for this station are not official NWS values.
T = Trace of Precipitation, MM = Missing Value Source: NWS Daily Summary

Daily Weather History Graph

Daily Weather History Graph

Search for Another Location

Airport or City:

Astronomy

Jun. 02, 2019 Rise Set
Actual Time 5:12 AM CDT 9:03 PM CDT
Civil Twilight 4:32 AM CDT 9:43 PM CDT
Nautical Twilight 3:37 AM CDT 10:39 PM CDT
Astronomical Twilight 2:14 AM CDT 12:03 AM CDT
Moon 5:02 AM CDT (6/2) 8:16 PM CDT (6/2)
Length of Visible Light 17h 11m
Length of Day
15h 50m
Waning Crescent, 1% of the Moon is Illuminated
Jun 2
Waning Crescent
Jun 3
New
Jun 10
First Quarter
Jun 17
Full
Jun 25
Last Quarter

Hourly Weather History & Observations

Time (CDT) Temp. Dew Point Humidity Pressure Visibility Wind Dir Wind Speed Gust Speed Precip Events Conditions
12:55 AM 33.8 °F 30.2 °F 87% 29.98 in 10.0 mi Calm Calm - N/A   Clear
2:28 AM 28.4 °F 28.4 °F 100% 30.00 in 10.0 mi Calm Calm - N/A   Clear
2:55 AM 28.4 °F 28.4 °F 100% 30.00 in 10.0 mi Calm Calm - N/A   Clear
3:08 AM 28.4 °F 28.4 °F 100% 30.01 in 10.0 mi Calm Calm - N/A   Clear
3:48 AM 28.4 °F 26.6 °F 93% 30.02 in 10.0 mi Calm Calm - N/A   Clear
3:55 AM 28.4 °F 28.4 °F 100% 30.02 in 10.0 mi Calm Calm - N/A   Clear
4:55 AM 28.4 °F 26.6 °F 93% 30.03 in 10.0 mi Calm Calm - N/A   Clear
5:55 AM 28.4 °F 28.4 °F 100% 30.04 in 10.0 mi Calm Calm - N/A   Clear
6:28 AM 28.4 °F 28.4 °F 100% 30.06 in 10.0 mi Calm Calm - N/A   Clear
6:55 AM 33.8 °F 32.0 °F 93% 30.06 in 10.0 mi Calm Calm - N/A   Clear
7:28 AM 39.2 °F 35.6 °F 87% 30.07 in 10.0 mi Calm Calm - N/A   Clear
7:55 AM 42.8 °F 33.8 °F 70% 30.07 in 10.0 mi Calm Calm - N/A   Clear
8:55 AM 48.2 °F 30.2 °F 50% 30.08 in 10.0 mi Calm Calm - N/A   Clear
9:55 AM 51.8 °F 26.6 °F 38% 30.07 in 10.0 mi Calm Calm - N/A   Clear
10:55 AM 53.6 °F 28.4 °F 38% 30.07 in 10.0 mi NE 3.5 mph - N/A   Scattered Clouds
11:48 AM 55.4 °F 28.4 °F 36% 30.07 in 10.0 mi North 5.8 mph - N/A   Scattered Clouds
11:55 AM 55.4 °F 26.6 °F 33% 30.07 in 10.0 mi North 5.8 mph - N/A   Scattered Clouds
12:08 PM 55.4 °F 28.4 °F 36% 30.07 in 10.0 mi NNE 6.9 mph - N/A   Clear
12:55 PM 57.2 °F 28.4 °F 33% 30.06 in 10.0 mi North 5.8 mph - N/A   Clear
1:08 PM 55.4 °F 28.4 °F 36% 30.06 in 10.0 mi NNE 8.1 mph - N/A   Scattered Clouds
1:55 PM 57.2 °F 28.4 °F 33% 30.05 in 10.0 mi NNE 8.1 mph - N/A   Clear
2:55 PM 57.2 °F 28.4 °F 33% 30.05 in 10.0 mi NNE 5.8 mph - N/A   Clear
4:08 PM 59.0 °F 28.4 °F 31% 30.04 in 10.0 mi North 6.9 mph - N/A   Clear
4:27 PM 60.8 °F 30.2 °F 31% 30.04 in 10.0 mi NE 4.6 mph - N/A   Scattered Clouds
4:55 PM 60.8 °F 30.2 °F 31% 30.03 in 10.0 mi NNE 6.9 mph - N/A   Clear
5:55 PM 57.2 °F 28.4 °F 33% 30.03 in 10.0 mi NNW 4.6 mph - N/A   Clear
6:55 PM - - N/A% 30.03 in - NNE 4.6 mph - N/A   Unknown
8:28 PM 51.8 °F 35.6 °F 54% 30.03 in 10.0 mi Calm Calm - N/A   Clear
8:55 PM 48.2 °F 37.4 °F 66% 30.03 in 10.0 mi Calm Calm - N/A   Clear
9:28 PM 46.4 °F 39.2 °F 76% 30.03 in 10.0 mi Calm Calm - N/A   Clear
9:48 PM 44.6 °F 37.4 °F 76% 30.04 in 10.0 mi Calm Calm - N/A   Clear
9:55 PM 44.6 °F 37.4 °F 76% 30.05 in 10.0 mi Calm Calm - N/A   Clear
10:28 PM 42.8 °F 37.4 °F 81% - 10.0 mi Calm Calm - N/A   Clear
10:55 PM 42.8 °F 39.2 °F 87% 30.06 in 10.0 mi Calm Calm - N/A   Clear
11:48 PM 41.0 °F 37.4 °F 87% 30.07 in 10.0 mi Calm Calm - N/A   Clear
11:55 PM 39.2 °F 37.4 °F 93% 30.07 in 10.0 mi Calm Calm - N/A   Clear